Powrót do katalogu

CZ-4 DEB

AktywnySSO
NORAD 29039·DEBRIS·🇨🇳 China

Wystrzelony Oct 14, 1999 z Taiyuan Satellite Launch Center

Loading…

Następne Przeloty (najbliższe 24 godziny)

TLE

ŚwieżeSource: Space-Track

Epoka: Sep 14, 2026, 02:35 UTC

1 29039U 99057NJ  26257.10810421  .00002919  00000-0  42143-3 0  9990
2 29039  98.3314 315.2899 0046294  51.8827 338.5122 14.76327465260621

Śledź CZ-4 DEB w czasie rzeczywistym z AllMySat

Download on the App Store